IRIDIUM 63

Last updated on Wed Nov 29 2017 00:19:03 GMT+0000 (Greenwich Mean Time)

1 25286U 98021B 17332.54861957 .00000156 00000-0 48266-4 0 9996 2 25286 86.3981 155.6665 0001911 90.5681 326.4508 14.34697029 28615
UTC large
Height (km)
Speed (km/s)
/
Latitude / Longitude
Inclination (degrees)
Orbital Period (minutes)
Azimuth
Elevation
Range (km)
Doppler Factor

Next 0 passes for location: London (51.5072 / 0.1276)

Sorry there are no passes over London.